This is the latest recevied weather packets stored in our database for station/object OE6PLD-13. If no packets are shown the sender has not sent any weather packets the latest 1 day(s).
| Time | Temp. | Humidity | Pressure | Rain* | Wind** | Luminosity | Snow |
|---|---|---|---|---|---|---|---|
| 1778058137 | 22.78° C | 47% | 1013.6 hPa | 0.76 mm | - | 674 W/m² | - |
| 1778057954 | 22.78° C | 48% | 1013.6 hPa | 0.76 mm | - | 677 W/m² | - |
| 1778057770 | 22.22° C | 51% | 1013.7 hPa | 0.76 mm | - | 701 W/m² | - |
| 1778057587 | 22.22° C | 51% | 1013.9 hPa | 0.76 mm | - | 715 W/m² | - |
| 1778057037 | 22.22° C | 52% | 1013.7 hPa | 0.76 mm | - | 709 W/m² | - |
| 1778056670 | 22.22° C | 51% | 1013.6 hPa | 0.76 mm | - | 646 W/m² | - |
| 1778056487 | 21.67° C | 53% | 1013.5 hPa | 0.76 mm | - | 609 W/m² | - |
| 1778055937 | 21.67° C | 53% | 1013.8 hPa | 0.76 mm | - | 657 W/m² | - |
| 1778055753 | 21.11° C | 55% | 1013.9 hPa | 0.76 mm | - | 665 W/m² | - |
| 1778055387 | 20.56° C | 57% | 1013.8 hPa | 0.76 mm | - | 714 W/m² | - |
| 1778055020 | 20° C | 60% | 1013.9 hPa | 0.76 mm | - | 716 W/m² | - |
| 1778054652 | 20.56° C | 60% | 1014.1 hPa | 0.76 mm | - | 693 W/m² | - |
| 1778054469 | 20° C | 59% | 1014 hPa | 0.76 mm | - | 669 W/m² | - |
| 1778054102 | 20° C | 60% | 1013.8 hPa | 0.76 mm | - | 627 W/m² | - |
| 1778053735 | 20.56° C | 58% | 1013.8 hPa | 0.76 mm | - | 611 W/m² | - |
| 1778053552 | 20.56° C | 59% | 1013.7 hPa | 0.76 mm | - | 646 W/m² | - |
| 1778053002 | 20.56° C | 59% | 1013.9 hPa | 0.76 mm | - | 697 W/m² | - |
| 1778052819 | 20° C | 60% | 1013.9 hPa | 0.76 mm | - | 717 W/m² | - |
| 1778052635 | 19.44° C | 60% | 1013.7 hPa | 0.76 mm | - | 697 W/m² | - |
| 1778052452 | 19.44° C | 62% | 1013.8 hPa | 0.76 mm | - | 649 W/m² | - |
| 1778052085 | 19.44° C | 62% | 1013.9 hPa | 0.76 mm | - | 586 W/m² | - |
| 1778051902 | 19.44° C | 61% | 1014.1 hPa | 0.76 mm | - | 558 W/m² | - |
| 1778051535 | 19.44° C | 61% | 1014 hPa | 0.76 mm | - | 428 W/m² | - |
| 1778051352 | 19.44° C | 61% | 1013.9 hPa | 0.76 mm | - | 396 W/m² | - |
| 1778050985 | 18.89° C | 62% | 1013.8 hPa | 0.76 mm | - | 418 W/m² | - |
* Rain latest hour (hover to see other rain measurements)
** Current wind speed in m/s (hover to see current wind gust speed)